Location: Cronhütte
(48.9135°N, 9.6869°E)
Time: 20:32:29
(UTC+00:00)

Nadezhda 1 Rocket - Pass Details

Date: 23 May 2024
Orbit: 941 x 1004 km, 83.0° (Epoch: 23 June)

Event Time Altitude Azimuth Distance (km) Brightness Sun altitude
Rises 01:04:53 0° 348° (NNW) 3,744 7.9 -16.5°
Reaches altitude 10° 01:07:26 10° 346° (NNW) 2,791 7.1 -16.3°
Maximum altitude 01:13:48 67° 266° (W) 1,081 4.1 -15.8°
Enters shadow 01:18:18 20° 188° (S) 2,122 5.2 -15.5°
